Погода в Ижморском

Россия / Кемеровская область (Кузбасс)     56°11′31″N   86°38′10″E
темп.,
°C
ветер,
м/с
пор.,
м/с
влажн.,
%
обл.,
%
осадки,
мм/ч
давл.,
гПа
погр.,
м
18 апреля, вс
вс1801:00−9ю3890100 0.0 1022105
04:00−7ю31090100 0.0 1019217
07:00−4ююз51387100 0.0 1016520
10:000юз6138439 0.0 1014823
13:00+2юз61290100 0.1 10131169
16:00+2юз71389100 0.1 1012985
19:00+3ююз71476100 0.1 1009808
22:00+1ююз61594100 0.0 1006729
19 апреля, пн
пн1901:00+1ююз71598100 0.4 1000675
04:00+1юз61398100 1.4 996843
07:00−5сз81295100 3.8 998590
10:00−9сз91590100 1.0 1009999
13:00−7зсз81168100 1.2 10161336
16:00−6зсз71067100 0.0 10191762
19:00−7зсз6974100 0.1 10211481
22:00−9з5107914 0.0 1022665
20 апреля, вт
вт2001:00−9з5989100 0.1 1022955
04:00−10з5118587 0.1 1022692
07:00−10з5108799 0.1 1023689
10:00−8з577291 0.0 1024876
13:00−5зсз576181 0.0 10241249
16:00−3зсз5656100 0.0 10231663
19:00−4зсз366699 0.1 1023832
22:00−8зюз228760 0.0 102429
21 апреля, ср
ср2101:00−8ю238652 0.0 102455
04:00−7ю3681100 0.0 1023150
07:00−6ю3782100 0.0 1023235
10:00−3ю3569100 0.0 1024995
13:00−1ю3468100 0.3 10241125
16:000юв2261100 0.4 10241139
19:000всв2364100 0.8 1025706
22:00−4всв248132 0.1 102870
22 апреля, чт
чт2201:00−5св25845 0.1 1029106
04:00−5ссв26875 0.0 1031149
07:00−5ссв37865 0.0 1034235
10:00−1св57615 0.0 10361043
13:00+1ссв5651100 0.1 10361633
16:00+2ссв4647100 0.1 10371754
19:00+1ссв476196 0.1 1039599
22:00−2ссв39825 0.0 1042236